Regional Weather Roundup
Issued by NWS

Home | Current Version | Previous Version | Graphics & Text | Print | Product List | Glossary On
Versions: 1 2 3 4 5 6 7 8 9 10 11 12 13 14 15 16 17 18 19 20 21 22 23 24 25 26 27 28 29 30 31 32 33 34 35 36 37 38 39 40 41 42 43 44 45 46 47 48 49 50
762
ASUS43 KBIS 212202
RWRND

NORTH DAKOTA REGIONAL WEATHER ROUNDUP
NATIONAL WEATHER SERVICE BISMARCK ND
400 PM CST TUE FEB 21 2017

NOTE: "FAIR" INDICATES FEW OR NO CLOUDS BELOW 12,000 FEET WITH NO
SIGNIFICANT WEATHER AND/OR OBSTRUCTIONS TO VISIBILITY.


NDZ001>003-009>011-017-212300-
NORTHWEST NORTH DAKOTA

CITY           SKY/WX    TMP DP  RH WIND       PRES   REMARKS
WILLISTON      CLOUDY    46  32  58 W3        29.63F
MINOT          CLOUDY    45  36  70 W6        29.64R
MINOT AFB      CLOUDY    40  34  81 W13       29.62S
$$

NDZ018>021-031>035-040>046-212300-
SOUTHWEST NORTH DAKOTA

CITY           SKY/WX    TMP DP  RH WIND       PRES   REMARKS
BISMARCK       CLOUDY    49  37  63 SE5       29.66F
DICKINSON      FAIR      53  33  46 N5        29.63F
GARRISON         N/A     45  36  70 W13G26    29.66R
HETTINGER ARPT CLOUDY    61  32  33 VRB3      29.63F
$$

NDZ004>008-012>016-024-026-027-054-212300-
NORTHEAST NORTH DAKOTA

CITY           SKY/WX    TMP DP  RH WIND       PRES   REMARKS
GRAND FORKS    PTSUNNY   37  31  78 NW9       29.67S HAZE
GRND FRKS AFB  CLOUDY    36  34  93 N7        29.67S FOG
DEVILS LAKE    FAIR      38  32  79 SW7       29.65F
$$

NDZ022-023-025-028>030-036>039-047>053-212300-
SOUTHEAST NORTH DAKOTA

CITY           SKY/WX    TMP DP  RH WIND       PRES   REMARKS
FARGO          MOSUNNY   46  40  79 W8        29.68R
JAMESTOWN      CLOUDY    45  37  73 W6        29.66F
$$





USA.gov is the U.S. government's official web portal to all federal, state and local government web resources and services.